Regional Weather Roundup
Issued by NWS

Home | Current Version | Previous Version | Text Only | Print | Product List | Glossary On
Versions: 1 2 3 4 5 6 7 8 9 10 11 12 13 14 15 16 17 18 19 20 21 22 23 24 25 26 27 28 29 30 31 32 33 34 35 36 37 38 39 40 41 42 43 44 45 46 47 48 49 50
000
ASUS43 KLMK 281410
RWRKY
KENTUCKY REGIONAL WEATHER ROUNDUP
NATIONAL WEATHER SERVICE LOUISVILLE KY
1000 AM EDT TUE APR 28 2015

NOTE "FAIR" INDICATES FEW OR NO CLOUDS BELOW 12,000 FEET
WITH NO SIGNIFICANT WEATHER AND/OR OBSTRUCTIONS TO VISIBILITY.

KYZ001>023-026-027-061>063-070>075-281500-
WESTERN AND SOUTH CENTRAL KENTUCKY

CITY           SKY/WX    TMP DP  RH WIND       PRES   REMARKS
PADUCAH        MOSUNNY   54  40  59 E13       30.06S
HENDERSON      SUNNY     52  37  58 E16G22    30.09F
OWENSBORO      SUNNY     52  40  63 NE10      30.10S
HOPKINSVILLE   MOSUNNY   53  41  64 NE10      30.04R
BOWLING GREEN  SUNNY     52  39  61 NE12      30.05F
GLASGOW        SUNNY     51  38  62 NE10      30.05F
$$

KYZ024-025-028>034-038-045-046-053-281500-
NORTH CENTRAL KENTUCKY

CITY           SKY/WX    TMP DP  RH WIND       PRES   REMARKS
LOUISVILLE/SDF SUNNY     52  35  52 NE14      30.11S
LOUISVILLE/LOU SUNNY     51  36  56 NE12      30.11F
FORT KNOX      SUNNY     50  35  55 NE12G21   30.07S
$$

KYZ035>037-039>044-047>052-055>060-089>105-281500-
NORTHEAST KENTUCKY

CITY           SKY/WX    TMP DP  RH WIND       PRES   REMARKS
LEXINGTON      SUNNY     49  37  63 NE12      30.10R
COVINGTON      SUNNY     50  37  61 NE7       30.12S
FRANKFORT      SUNNY     49  35  58 NE13      30.10R
$$

KYZ054-064>069-076>088-106>120-281500-
SOUTHEAST KENTUCKY

CITY           SKY/WX    TMP DP  RH WIND       PRES   REMARKS
JACKSON        SUNNY     49  34  56 VRB3      30.07S
LONDON         SUNNY     51  36  56 E7        30.06S
SOMERSET       SUNNY     50  37  62 NE8       30.07F
MIDDLESBORO    SUNNY     51  39  64 CALM      30.04F
MONTICELLO     SUNNY     52  39  61 NE6       30.07F
$$



USA.gov is the U.S. government's official web portal to all federal, state and local government web resources and services.